STARLINK-33598 (62771 NORAD) Tracking and Keplerian Element Data

This shows tracking and keplerian element data for the satellite.

Feedback or suggestion? Click here.




ElementValue
Catalog62771
NameSTARLINK-33598
Epoch Orbit339
Epoch Day35.25001157
Epoch Year2025
RAAN18.6682
Inclination53.16
Eccentricity0.0001249
Argument of Perigee76.8406
Mean Anonmoly204.2553
Mean Motion15.7854486
Decay Rate-0.01061654
L11 62771U 25015P 25035.25001157 -.01061654 00000+0 -66371-2 0 9991
L22 62771 53.1600 18.6682 0001249 76.8406 204.2553 15.78544860 3392



Live tracking and technical data element details for STARLINK-33598 (NORAD 62771). STARLINK-33598 can be tracked NOW for your location showing map with azimuth and elevation plus other details from your city location.







IsCatalogInMostPopularTable: catalog: 62771, numindb: 195
Update: records affected: 1



GetName: 62771 STARLINK-33598

Hit Count: updated at: Mon, 17 Nov 2025 19:29:16 GMT